Starlink 32493

operational
NORAD ID: 62025 Int'l Des: 2024-213 Owner: SPXS Country: US Constellation: starlink
LEOCIRCULAR

About Starlink 32493

Description loading...

Live Position

Loading 3D Globe...

Upcoming Passes

Altitude History

Altitude vs Time

uPlot chart will show altitude changes over time

Two-Line Element Set

1 62025U 24213T 25259.37963246 .00033918 00000-0 11517-2 0 9991
2 62025 53.1616 258.0273 0000369 153.7484 206.3536 15.30210866 46463
Epoch: Sep 16, 2025 • Age: 38 hours

Current Status

Altitude 480.2 km
Velocity 7.63 km/s
Sub-Earth Point 47.77°N, 36.62°W
Launch Date Nov 18, 2024
Age 0.8 years
Type internet

Technical Details

Classification Payload
Mass 730.00 kg
Dry Mass 700.00 kg
Total Mass 730.00 kg
Length 0.30 m
Diameter 4.10 m
Span 29.00 m
Shape Box + pan
Manufacturer SPXS
Bus Type Starlink V2M
Phase Status In Orbit
Owner/State SPXS/US

Large Constellations

Loading constellations...